owner,sensor,date,latitude,longitude,vertical_datum,sea_water_practical_salinity,qcFlag 
TCOON,ioos:station:TCOON:127:1,2015-12-01T01:30:00Z,28.2598,-96.7737,0.0,12.8,1111122 
TCOON,ioos:station:TCOON:127:1,2015-12-01T03:30:00Z,28.2598,-96.7737,0.0,13.8,1111122 
TCOON,ioos:station:TCOON:127:1,2015-12-01T05:30:00Z,28.2598,-96.7737,0.0,12.5,1111122 
TCOON,ioos:station:TCOON:127:1,2015-12-01T06:30:00Z,28.2598,-96.7737,0.0,12.5,1111122 
TCOON,ioos:station:TCOON:127:1,2015-12-01T08:30:00Z,28.2598,-96.7737,0.0,12.8,1111122 
TCOON,ioos:station:TCOON:127:1,2015-12-01T12:30:00Z,28.2598,-96.7737,0.0,12.8,1111122 
TCOON,ioos:station:TCOON:127:1,2015-12-01T13:30:00Z,28.2598,-96.7737,0.0,12.9,1111122 
TCOON,ioos:station:TCOON:127:1,2015-12-01T14:30:00Z,28.2598,-96.7737,0.0,12.8,1111122 
TCOON,ioos:station:TCOON:127:1,2015-12-01T17:30:00Z,28.2598,-96.7737,0.0,11.3,1111122 
TCOON,ioos:station:TCOON:127:1,2015-12-01T20:30:00Z,28.2598,-96.7737,0.0,11.2,1111122 
TCOON,ioos:station:TCOON:127:1,2015-12-01T21:30:00Z,28.2598,-96.7737,0.0,10.3,1111122 
TCOON,ioos:station:TCOON:127:1,2015-12-01T22:30:00Z,28.2598,-96.7737,0.0,10.3,1111122 
TCOON,ioos:station:TCOON:127:1,2015-12-01T23:30:00Z,28.2598,-96.7737,0.0,9.5,1111122 
TCOON,ioos:station:TCOON:127:1,2015-12-02T00:30:00Z,28.2598,-96.7737,0.0,10.4,1111122 
TCOON,ioos:station:TCOON:127:1,2015-12-02T01:30:00Z,28.2598,-96.7737,0.0,10.4,1111122 
TCOON,ioos:station:TCOON:127:1,2015-12-02T03:30:00Z,28.2598,-96.7737,0.0,10.6,1111122 
TCOON,ioos:station:TCOON:127:1,2015-12-02T04:30:00Z,28.2598,-96.7737,0.0,10.4,1111122 
TCOON,ioos:station:TCOON:127:1,2015-12-02T05:30:00Z,28.2598,-96.7737,0.0,10.7,1111122 
TCOON,ioos:station:TCOON:127:1,2015-12-02T07:30:00Z,28.2598,-96.7737,0.0,11.4,1111122 
TCOON,ioos:station:TCOON:127:1,2015-12-02T08:30:00Z,28.2598,-96.7737,0.0,11.5,1111122 
TCOON,ioos:station:TCOON:127:1,2015-12-02T15:30:00Z,28.2598,-96.7737,0.0,11.7,1111122 
TCOON,ioos:station:TCOON:127:1,2015-12-02T16:30:00Z,28.2598,-96.7737,0.0,12.1,1111122 
TCOON,ioos:station:TCOON:127:1,2015-12-02T18:30:00Z,28.2598,-96.7737,0.0,12.6,1111122 
TCOON,ioos:station:TCOON:127:1,2015-12-02T19:30:00Z,28.2598,-96.7737,0.0,12.5,1111122 
TCOON,ioos:station:TCOON:127:1,2015-12-02T20:30:00Z,28.2598,-96.7737,0.0,12.5,1111122 
TCOON,ioos:station:TCOON:127:1,2015-12-02T21:30:00Z,28.2598,-96.7737,0.0,12.4,1111122 
TCOON,ioos:station:TCOON:127:1,2015-12-02T22:30:00Z,28.2598,-96.7737,0.0,12.1,1111122 
TCOON,ioos:station:TCOON:127:1,2015-12-02T23:30:00Z,28.2598,-96.7737,0.0,12.2,1111122 
TCOON,ioos:station:TCOON:127:1,2015-12-03T01:30:00Z,28.2598,-96.7737,0.0,12.2,1111122 
TCOON,ioos:station:TCOON:127:1,2015-12-03T02:30:00Z,28.2598,-96.7737,0.0,12.0,1111122 
TCOON,ioos:station:TCOON:127:1,2015-12-03T10:30:00Z,28.2598,-96.7737,0.0,12.6,1111122 
TCOON,ioos:station:TCOON:127:1,2015-12-03T12:30:00Z,28.2598,-96.7737,0.0,12.8,1111122 
TCOON,ioos:station:TCOON:127:1,2015-12-03T13:30:00Z,28.2598,-96.7737,0.0,13.4,1111122 
TCOON,ioos:station:TCOON:127:1,2015-12-03T14:30:00Z,28.2598,-96.7737,0.0,13.9,1111122 
TCOON,ioos:station:TCOON:127:1,2015-12-03T16:30:00Z,28.2598,-96.7737,0.0,14.2,1111122 
TCOON,ioos:station:TCOON:127:1,2015-12-03T17:30:00Z,28.2598,-96.7737,0.0,14.1,1111122 
TCOON,ioos:station:TCOON:127:1,2015-12-03T18:30:00Z,28.2598,-96.7737,0.0,14.1,1111122 
TCOON,ioos:station:TCOON:127:1,2015-12-03T19:30:00Z,28.2598,-96.7737,0.0,14.0,1111122 
TCOON,ioos:station:TCOON:127:1,2015-12-03T21:30:00Z,28.2598,-96.7737,0.0,13.8,1111122 
TCOON,ioos:station:TCOON:127:1,2015-12-03T22:30:00Z,28.2598,-96.7737,0.0,13.7,1111122 
TCOON,ioos:station:TCOON:127:1,2015-12-03T23:30:00Z,28.2598,-96.7737,0.0,13.4,1111122 
TCOON,ioos:station:TCOON:127:1,2015-12-04T00:30:00Z,28.2598,-96.7737,0.0,13.2,1111122 
TCOON,ioos:station:TCOON:127:1,2015-12-04T01:30:00Z,28.2598,-96.7737,0.0,13.0,1111122 
TCOON,ioos:station:TCOON:127:1,2015-12-04T04:30:00Z,28.2598,-96.7737,0.0,13.3,1111122 
TCOON,ioos:station:TCOON:127:1,2015-12-04T07:30:00Z,28.2598,-96.7737,0.0,13.3,1111122 
TCOON,ioos:station:TCOON:127:1,2015-12-04T09:30:00Z,28.2598,-96.7737,0.0,13.6,1111122 
TCOON,ioos:station:TCOON:127:1,2015-12-04T10:30:00Z,28.2598,-96.7737,0.0,13.8,1111122 
TCOON,ioos:station:TCOON:127:1,2015-12-04T11:30:00Z,28.2598,-96.7737,0.0,13.8,1111122 
TCOON,ioos:station:TCOON:127:1,2015-12-04T12:30:00Z,28.2598,-96.7737,0.0,13.8,1111122 
TCOON,ioos:station:TCOON:127:1,2015-12-04T16:30:00Z,28.2598,-96.7737,0.0,13.8,1111122 
TCOON,ioos:station:TCOON:127:1,2015-12-04T17:30:00Z,28.2598,-96.7737,0.0,13.7,1111122 
TCOON,ioos:station:TCOON:127:1,2015-12-05T01:00:00Z,28.2598,-96.7737,0.0,13.7,1111122 
TCOON,ioos:station:TCOON:127:1,2015-12-05T07:00:00Z,28.2598,-96.7737,0.0,13.8,1111122 
TCOON,ioos:station:TCOON:127:1,2015-12-05T19:00:00Z,28.2598,-96.7737,0.0,14.3,1111122 
TCOON,ioos:station:TCOON:127:1,2015-12-06T01:00:00Z,28.2598,-96.7737,0.0,14.8,1111122 
TCOON,ioos:station:TCOON:127:1,2015-12-06T07:00:00Z,28.2598,-96.7737,0.0,15.3,1111122 
TCOON,ioos:station:TCOON:127:1,2015-12-06T17:00:00Z,28.2598,-96.7737,0.0,14.7,1111122 
TCOON,ioos:station:TCOON:127:1,2015-12-06T17:30:00Z,28.2598,-96.7737,0.0,14.6,1111122 
TCOON,ioos:station:TCOON:127:1,2015-12-06T18:30:00Z,28.2598,-96.7737,0.0,14.6,1111122 
TCOON,ioos:station:TCOON:127:1,2015-12-06T20:30:00Z,28.2598,-96.7737,0.0,15.0,1111122 
TCOON,ioos:station:TCOON:127:1,2015-12-06T22:30:00Z,28.2598,-96.7737,0.0,13.6,1111122 
TCOON,ioos:station:TCOON:127:1,2015-12-06T23:30:00Z,28.2598,-96.7737,0.0,13.1,1111122 
TCOON,ioos:station:TCOON:127:1,2015-12-07T01:30:00Z,28.2598,-96.7737,0.0,12.8,1111122 
TCOON,ioos:station:TCOON:127:1,2015-12-07T02:30:00Z,28.2598,-96.7737,0.0,12.8,1111122 
TCOON,ioos:station:TCOON:127:1,2015-12-07T06:30:00Z,28.2598,-96.7737,0.0,15.5,1111122 
TCOON,ioos:station:TCOON:127:1,2015-12-07T08:30:00Z,28.2598,-96.7737,0.0,15.0,1111122 
TCOON,ioos:station:TCOON:127:1,2015-12-07T17:30:00Z,28.2598,-96.7737,0.0,13.5,1111122 
TCOON,ioos:station:TCOON:127:1,2015-12-07T18:30:00Z,28.2598,-96.7737,0.0,13.7,1111122 
TCOON,ioos:station:TCOON:127:1,2015-12-07T23:30:00Z,28.2598,-96.7737,0.0,13.3,1111122 
TCOON,ioos:station:TCOON:127:1,2015-12-08T00:30:00Z,28.2598,-96.7737,0.0,13.0,1111122 
TCOON,ioos:station:TCOON:127:1,2015-12-08T03:30:00Z,28.2598,-96.7737,0.0,13.1,1111122 
TCOON,ioos:station:TCOON:127:1,2015-12-08T04:30:00Z,28.2598,-96.7737,0.0,13.2,1111122 
TCOON,ioos:station:TCOON:127:1,2015-12-08T18:30:00Z,28.2598,-96.7737,0.0,15.7,1111122 
TCOON,ioos:station:TCOON:127:1,2015-12-08T19:30:00Z,28.2598,-96.7737,0.0,15.3,1111122 
TCOON,ioos:station:TCOON:127:1,2015-12-08T20:30:00Z,28.2598,-96.7737,0.0,13.9,1111122 
TCOON,ioos:station:TCOON:127:1,2015-12-08T21:30:00Z,28.2598,-96.7737,0.0,13.8,1111122 
TCOON,ioos:station:TCOON:127:1,2015-12-09T00:30:00Z,28.2598,-96.7737,0.0,13.8,1111122 
TCOON,ioos:station:TCOON:127:1,2015-12-09T02:30:00Z,28.2598,-96.7737,0.0,13.9,1111122 
TCOON,ioos:station:TCOON:127:1,2015-12-09T03:30:00Z,28.2598,-96.7737,0.0,14.1,1111122 
TCOON,ioos:station:TCOON:127:1,2015-12-09T06:30:00Z,28.2598,-96.7737,0.0,14.4,1111122 
TCOON,ioos:station:TCOON:127:1,2015-12-09T10:30:00Z,28.2598,-96.7737,0.0,16.2,1111122 
TCOON,ioos:station:TCOON:127:1,2015-12-09T11:30:00Z,28.2598,-96.7737,0.0,16.9,1111122 
TCOON,ioos:station:TCOON:127:1,2015-12-09T18:30:00Z,28.2598,-96.7737,0.0,14.6,1111122 
TCOON,ioos:station:TCOON:127:1,2015-12-09T21:30:00Z,28.2598,-96.7737,0.0,16.8,1111122 
TCOON,ioos:station:TCOON:127:1,2015-12-09T22:30:00Z,28.2598,-96.7737,0.0,17.2,1111122 
TCOON,ioos:station:TCOON:127:1,2015-12-09T23:30:00Z,28.2598,-96.7737,0.0,16.8,1111122 
TCOON,ioos:station:TCOON:127:1,2015-12-10T00:30:00Z,28.2598,-96.7737,0.0,17.6,1111122 
TCOON,ioos:station:TCOON:127:1,2015-12-10T20:30:00Z,28.2598,-96.7737,0.0,18.1,1111122 
TCOON,ioos:station:TCOON:127:1,2015-12-13T13:30:00Z,28.2598,-96.7737,0.0,17.2,1111122 
TCOON,ioos:station:TCOON:127:1,2015-12-13T15:30:00Z,28.2598,-96.7737,0.0,16.8,1111122 
TCOON,ioos:station:TCOON:127:1,2015-12-13T20:30:00Z,28.2598,-96.7737,0.0,16.4,1111122 
TCOON,ioos:station:TCOON:127:1,2015-12-14T01:30:00Z,28.2598,-96.7737,0.0,16.5,1111122 
TCOON,ioos:station:TCOON:127:1,2015-12-14T02:30:00Z,28.2598,-96.7737,0.0,16.8,1111122 
TCOON,ioos:station:TCOON:127:1,2015-12-14T05:30:00Z,28.2598,-96.7737,0.0,16.7,1111122 
TCOON,ioos:station:TCOON:127:1,2015-12-14T06:30:00Z,28.2598,-96.7737,0.0,16.6,1111122 
TCOON,ioos:station:TCOON:127:1,2015-12-14T18:30:00Z,28.2598,-96.7737,0.0,17.2,1111122 
TCOON,ioos:station:TCOON:127:1,2015-12-16T12:30:00Z,28.2598,-96.7737,0.0,17.6,1111122 
TCOON,ioos:station:TCOON:127:1,2015-12-16T15:30:00Z,28.2598,-96.7737,0.0,17.6,1111122 
TCOON,ioos:station:TCOON:127:1,2015-12-16T17:30:00Z,28.2598,-96.7737,0.0,17.6,1111122 
TCOON,ioos:station:TCOON:127:1,2015-12-16T18:30:00Z,28.2598,-96.7737,0.0,17.6,1111122 
TCOON,ioos:station:TCOON:127:1,2015-12-16T20:30:00Z,28.2598,-96.7737,0.0,17.6,1111122 
TCOON,ioos:station:TCOON:127:1,2015-12-16T21:30:00Z,28.2598,-96.7737,0.0,17.6,1111122 
TCOON,ioos:station:TCOON:127:1,2015-12-16T22:30:00Z,28.2598,-96.7737,0.0,17.6,1111122 
TCOON,ioos:station:TCOON:127:1,2015-12-16T23:30:00Z,28.2598,-96.7737,0.0,17.6,1111122 
TCOON,ioos:station:TCOON:127:1,2015-12-17T03:30:00Z,28.2598,-96.7737,0.0,17.7,1111122 
TCOON,ioos:station:TCOON:127:1,2015-12-17T09:30:00Z,28.2598,-96.7737,0.0,17.3,1111122 
TCOON,ioos:station:TCOON:127:1,2015-12-17T10:30:00Z,28.2598,-96.7737,0.0,17.5,1111122 
TCOON,ioos:station:TCOON:127:1,2015-12-17T19:30:00Z,28.2598,-96.7737,0.0,17.3,1111122 
TCOON,ioos:station:TCOON:127:1,2015-12-17T20:30:00Z,28.2598,-96.7737,0.0,17.3,1111122 
TCOON,ioos:station:TCOON:127:1,2015-12-17T21:30:00Z,28.2598,-96.7737,0.0,17.2,1111122 
TCOON,ioos:station:TCOON:127:1,2015-12-17T22:30:00Z,28.2598,-96.7737,0.0,16.9,1111122 
TCOON,ioos:station:TCOON:127:1,2015-12-18T02:30:00Z,28.2598,-96.7737,0.0,16.0,1111122 
TCOON,ioos:station:TCOON:127:1,2015-12-18T07:30:00Z,28.2598,-96.7737,0.0,16.3,1111122 
TCOON,ioos:station:TCOON:127:1,2015-12-18T08:30:00Z,28.2598,-96.7737,0.0,16.1,1111122 
TCOON,ioos:station:TCOON:127:1,2015-12-18T10:30:00Z,28.2598,-96.7737,0.0,16.4,1111122 
TCOON,ioos:station:TCOON:127:1,2015-12-18T11:30:00Z,28.2598,-96.7737,0.0,15.9,1111122 
TCOON,ioos:station:TCOON:127:1,2015-12-18T17:30:00Z,28.2598,-96.7737,0.0,14.5,1111122 
TCOON,ioos:station:TCOON:127:1,2015-12-18T19:30:00Z,28.2598,-96.7737,0.0,14.0,1111122 
TCOON,ioos:station:TCOON:127:1,2015-12-18T22:30:00Z,28.2598,-96.7737,0.0,14.1,1111122 
TCOON,ioos:station:TCOON:127:1,2015-12-18T23:30:00Z,28.2598,-96.7737,0.0,14.1,1111122 
TCOON,ioos:station:TCOON:127:1,2015-12-19T00:30:00Z,28.2598,-96.7737,0.0,14.3,1111122 
TCOON,ioos:station:TCOON:127:1,2015-12-19T02:30:00Z,28.2598,-96.7737,0.0,14.1,1111122 
TCOON,ioos:station:TCOON:127:1,2015-12-19T03:30:00Z,28.2598,-96.7737,0.0,13.8,1111122 
TCOON,ioos:station:TCOON:127:1,2015-12-19T05:30:00Z,28.2598,-96.7737,0.0,14.3,1111122 
TCOON,ioos:station:TCOON:127:1,2015-12-19T06:30:00Z,28.2598,-96.7737,0.0,14.4,1111122 
TCOON,ioos:station:TCOON:127:1,2015-12-19T07:30:00Z,28.2598,-96.7737,0.0,14.5,1111122 
TCOON,ioos:station:TCOON:127:1,2015-12-19T08:30:00Z,28.2598,-96.7737,0.0,14.6,1111122 
TCOON,ioos:station:TCOON:127:1,2015-12-19T09:30:00Z,28.2598,-96.7737,0.0,14.7,1111122 
TCOON,ioos:station:TCOON:127:1,2015-12-19T10:30:00Z,28.2598,-96.7737,0.0,14.8,1111122 
TCOON,ioos:station:TCOON:127:1,2015-12-19T11:30:00Z,28.2598,-96.7737,0.0,14.8,1111122 
TCOON,ioos:station:TCOON:127:1,2015-12-19T12:30:00Z,28.2598,-96.7737,0.0,14.8,1111122 
TCOON,ioos:station:TCOON:127:1,2015-12-19T13:30:00Z,28.2598,-96.7737,0.0,14.9,1111122 
TCOON,ioos:station:TCOON:127:1,2015-12-19T15:30:00Z,28.2598,-96.7737,0.0,14.4,1111122 
TCOON,ioos:station:TCOON:127:1,2015-12-19T16:30:00Z,28.2598,-96.7737,0.0,14.2,1111122 
TCOON,ioos:station:TCOON:127:1,2015-12-19T20:30:00Z,28.2598,-96.7737,0.0,13.9,1111122 
TCOON,ioos:station:TCOON:127:1,2015-12-19T21:30:00Z,28.2598,-96.7737,0.0,13.8,1111122 
TCOON,ioos:station:TCOON:127:1,2015-12-19T22:30:00Z,28.2598,-96.7737,0.0,13.7,1111122 
TCOON,ioos:station:TCOON:127:1,2015-12-19T23:30:00Z,28.2598,-96.7737,0.0,13.9,1111122 
TCOON,ioos:station:TCOON:127:1,2015-12-20T00:30:00Z,28.2598,-96.7737,0.0,13.8,1111122 
TCOON,ioos:station:TCOON:127:1,2015-12-20T01:30:00Z,28.2598,-96.7737,0.0,13.8,1111122 
TCOON,ioos:station:TCOON:127:1,2015-12-20T02:30:00Z,28.2598,-96.7737,0.0,13.7,1111122 
TCOON,ioos:station:TCOON:127:1,2015-12-20T03:30:00Z,28.2598,-96.7737,0.0,13.2,1111122 
TCOON,ioos:station:TCOON:127:1,2015-12-20T04:30:00Z,28.2598,-96.7737,0.0,13.0,1111122 
TCOON,ioos:station:TCOON:127:1,2015-12-20T05:30:00Z,28.2598,-96.7737,0.0,12.8,1111122 
TCOON,ioos:station:TCOON:127:1,2015-12-20T06:30:00Z,28.2598,-96.7737,0.0,12.6,1111122 
TCOON,ioos:station:TCOON:127:1,2015-12-20T08:30:00Z,28.2598,-96.7737,0.0,12.5,1111122 
TCOON,ioos:station:TCOON:127:1,2015-12-20T09:30:00Z,28.2598,-96.7737,0.0,12.1,1111122 
TCOON,ioos:station:TCOON:127:1,2015-12-20T11:30:00Z,28.2598,-96.7737,0.0,12.6,1111122 
TCOON,ioos:station:TCOON:127:1,2015-12-20T12:30:00Z,28.2598,-96.7737,0.0,10.5,1111122 
TCOON,ioos:station:TCOON:127:1,2015-12-20T13:30:00Z,28.2598,-96.7737,0.0,10.3,1111122 
TCOON,ioos:station:TCOON:127:1,2015-12-21T21:30:00Z,28.2598,-96.7737,0.0,15.4,1111122 
TCOON,ioos:station:TCOON:127:1,2015-12-21T22:30:00Z,28.2598,-96.7737,0.0,15.5,1111122 
TCOON,ioos:station:TCOON:127:1,2015-12-21T23:30:00Z,28.2598,-96.7737,0.0,15.6,1111122 
TCOON,ioos:station:TCOON:127:1,2015-12-22T00:30:00Z,28.2598,-96.7737,0.0,15.6,1111122 
TCOON,ioos:station:TCOON:127:1,2015-12-22T01:30:00Z,28.2598,-96.7737,0.0,15.7,1111122 
TCOON,ioos:station:TCOON:127:1,2015-12-22T02:30:00Z,28.2598,-96.7737,0.0,15.7,1111122 
TCOON,ioos:station:TCOON:127:1,2015-12-22T03:30:00Z,28.2598,-96.7737,0.0,15.7,1111122 
TCOON,ioos:station:TCOON:127:1,2015-12-22T04:30:00Z,28.2598,-96.7737,0.0,15.8,1111122 
TCOON,ioos:station:TCOON:127:1,2015-12-22T05:30:00Z,28.2598,-96.7737,0.0,15.9,1111122 
TCOON,ioos:station:TCOON:127:1,2015-12-22T06:30:00Z,28.2598,-96.7737,0.0,16.0,1111122 
TCOON,ioos:station:TCOON:127:1,2015-12-22T07:30:00Z,28.2598,-96.7737,0.0,14.2,1111122 
TCOON,ioos:station:TCOON:127:1,2015-12-22T08:30:00Z,28.2598,-96.7737,0.0,14.8,1111122 
TCOON,ioos:station:TCOON:127:1,2015-12-22T18:30:00Z,28.2598,-96.7737,0.0,14.4,1111122 
TCOON,ioos:station:TCOON:127:1,2015-12-22T19:30:00Z,28.2598,-96.7737,0.0,14.5,1111122 
TCOON,ioos:station:TCOON:127:1,2015-12-22T20:30:00Z,28.2598,-96.7737,0.0,14.4,1111122 
TCOON,ioos:station:TCOON:127:1,2015-12-22T21:30:00Z,28.2598,-96.7737,0.0,14.3,1111122 
TCOON,ioos:station:TCOON:127:1,2015-12-22T22:30:00Z,28.2598,-96.7737,0.0,14.6,1111122 
TCOON,ioos:station:TCOON:127:1,2015-12-22T23:30:00Z,28.2598,-96.7737,0.0,13.5,1111122 
TCOON,ioos:station:TCOON:127:1,2015-12-23T00:30:00Z,28.2598,-96.7737,0.0,13.9,1111122 
TCOON,ioos:station:TCOON:127:1,2015-12-23T01:30:00Z,28.2598,-96.7737,0.0,13.9,1111122 
TCOON,ioos:station:TCOON:127:1,2015-12-23T02:30:00Z,28.2598,-96.7737,0.0,14.4,1111122 
TCOON,ioos:station:TCOON:127:1,2015-12-23T03:30:00Z,28.2598,-96.7737,0.0,14.9,1111122 
TCOON,ioos:station:TCOON:127:1,2015-12-23T04:30:00Z,28.2598,-96.7737,0.0,15.8,1111122 
TCOON,ioos:station:TCOON:127:1,2015-12-23T05:30:00Z,28.2598,-96.7737,0.0,16.1,1111122 
TCOON,ioos:station:TCOON:127:1,2015-12-23T06:30:00Z,28.2598,-96.7737,0.0,16.3,1111122 
TCOON,ioos:station:TCOON:127:1,2015-12-23T07:30:00Z,28.2598,-96.7737,0.0,16.3,1111122 
TCOON,ioos:station:TCOON:127:1,2015-12-23T08:30:00Z,28.2598,-96.7737,0.0,16.3,1111122 
TCOON,ioos:station:TCOON:127:1,2015-12-23T09:30:00Z,28.2598,-96.7737,0.0,16.3,1111122 
TCOON,ioos:station:TCOON:127:1,2015-12-23T10:30:00Z,28.2598,-96.7737,0.0,16.5,1111122 
TCOON,ioos:station:TCOON:127:1,2015-12-23T11:30:00Z,28.2598,-96.7737,0.0,16.4,1111122 
TCOON,ioos:station:TCOON:127:1,2015-12-23T12:30:00Z,28.2598,-96.7737,0.0,16.2,1111122 
TCOON,ioos:station:TCOON:127:1,2015-12-23T13:30:00Z,28.2598,-96.7737,0.0,16.3,1111122 
TCOON,ioos:station:TCOON:127:1,2015-12-23T14:30:00Z,28.2598,-96.7737,0.0,14.6,1111122 
TCOON,ioos:station:TCOON:127:1,2015-12-23T15:30:00Z,28.2598,-96.7737,0.0,15.9,1111122 
TCOON,ioos:station:TCOON:127:1,2015-12-23T16:30:00Z,28.2598,-96.7737,0.0,15.4,1111122 
TCOON,ioos:station:TCOON:127:1,2015-12-23T17:30:00Z,28.2598,-96.7737,0.0,13.9,1111122 
TCOON,ioos:station:TCOON:127:1,2015-12-23T18:30:00Z,28.2598,-96.7737,0.0,13.2,1111122 
TCOON,ioos:station:TCOON:127:1,2015-12-23T19:30:00Z,28.2598,-96.7737,0.0,15.5,1111122 
TCOON,ioos:station:TCOON:127:1,2015-12-23T20:30:00Z,28.2598,-96.7737,0.0,15.3,1111122 
TCOON,ioos:station:TCOON:127:1,2015-12-23T21:30:00Z,28.2598,-96.7737,0.0,15.9,1111122 
TCOON,ioos:station:TCOON:127:1,2015-12-23T23:30:00Z,28.2598,-96.7737,0.0,16.0,1111122 
TCOON,ioos:station:TCOON:127:1,2015-12-24T13:30:00Z,28.2598,-96.7737,0.0,15.7,1111122 
TCOON,ioos:station:TCOON:127:1,2015-12-24T14:30:00Z,28.2598,-96.7737,0.0,15.5,1111122 
TCOON,ioos:station:TCOON:127:1,2015-12-24T17:30:00Z,28.2598,-96.7737,0.0,15.4,1111122 
TCOON,ioos:station:TCOON:127:1,2015-12-24T18:30:00Z,28.2598,-96.7737,0.0,15.0,1111122 
TCOON,ioos:station:TCOON:127:1,2015-12-24T19:30:00Z,28.2598,-96.7737,0.0,15.1,1111122 
TCOON,ioos:station:TCOON:127:1,2015-12-24T20:30:00Z,28.2598,-96.7737,0.0,15.1,1111122 
TCOON,ioos:station:TCOON:127:1,2015-12-24T21:30:00Z,28.2598,-96.7737,0.0,15.1,1111122 
TCOON,ioos:station:TCOON:127:1,2015-12-24T22:30:00Z,28.2598,-96.7737,0.0,14.9,1111122 
TCOON,ioos:station:TCOON:127:1,2015-12-24T23:30:00Z,28.2598,-96.7737,0.0,15.0,1111122 
TCOON,ioos:station:TCOON:127:1,2015-12-25T00:30:00Z,28.2598,-96.7737,0.0,15.5,1111122 
TCOON,ioos:station:TCOON:127:1,2015-12-25T01:30:00Z,28.2598,-96.7737,0.0,15.6,1111122 
TCOON,ioos:station:TCOON:127:1,2015-12-25T04:00:00Z,28.2598,-96.7737,0.0,15.6,1111122 
TCOON,ioos:station:TCOON:127:1,2015-12-25T04:30:00Z,28.2598,-96.7737,0.0,15.6,1111122 
TCOON,ioos:station:TCOON:127:1,2015-12-25T05:30:00Z,28.2598,-96.7737,0.0,15.5,1111122 
TCOON,ioos:station:TCOON:127:1,2015-12-25T06:30:00Z,28.2598,-96.7737,0.0,15.6,1111122 
TCOON,ioos:station:TCOON:127:1,2015-12-25T08:30:00Z,28.2598,-96.7737,0.0,15.6,1111122 
TCOON,ioos:station:TCOON:127:1,2015-12-25T10:00:00Z,28.2598,-96.7737,0.0,15.6,1111122 
TCOON,ioos:station:TCOON:127:1,2015-12-25T10:30:00Z,28.2598,-96.7737,0.0,15.6,1111122 
TCOON,ioos:station:TCOON:127:1,2015-12-25T11:30:00Z,28.2598,-96.7737,0.0,15.6,1111122 
TCOON,ioos:station:TCOON:127:1,2015-12-25T16:30:00Z,28.2598,-96.7737,0.0,14.9,1111122 
TCOON,ioos:station:TCOON:127:1,2015-12-25T17:30:00Z,28.2598,-96.7737,0.0,14.8,1111122 
TCOON,ioos:station:TCOON:127:1,2015-12-25T18:30:00Z,28.2598,-96.7737,0.0,14.9,1111122 
TCOON,ioos:station:TCOON:127:1,2015-12-25T19:30:00Z,28.2598,-96.7737,0.0,15.0,1111122 
TCOON,ioos:station:TCOON:127:1,2015-12-25T20:30:00Z,28.2598,-96.7737,0.0,15.0,1111122 
TCOON,ioos:station:TCOON:127:1,2015-12-25T21:30:00Z,28.2598,-96.7737,0.0,14.8,1111122 
TCOON,ioos:station:TCOON:127:1,2015-12-25T22:30:00Z,28.2598,-96.7737,0.0,14.8,1111122 
TCOON,ioos:station:TCOON:127:1,2015-12-25T23:30:00Z,28.2598,-96.7737,0.0,14.8,1111122 
TCOON,ioos:station:TCOON:127:1,2015-12-26T00:30:00Z,28.2598,-96.7737,0.0,14.6,1111122 
TCOON,ioos:station:TCOON:127:1,2015-12-26T01:30:00Z,28.2598,-96.7737,0.0,14.6,1111122 
TCOON,ioos:station:TCOON:127:1,2015-12-26T02:30:00Z,28.2598,-96.7737,0.0,14.7,1111122 
TCOON,ioos:station:TCOON:127:1,2015-12-26T03:30:00Z,28.2598,-96.7737,0.0,14.7,1111122 
TCOON,ioos:station:TCOON:127:1,2015-12-26T04:30:00Z,28.2598,-96.7737,0.0,14.7,1111122 
TCOON,ioos:station:TCOON:127:1,2015-12-26T05:30:00Z,28.2598,-96.7737,0.0,14.7,1111122 
TCOON,ioos:station:TCOON:127:1,2015-12-26T06:30:00Z,28.2598,-96.7737,0.0,14.7,1111122 
TCOON,ioos:station:TCOON:127:1,2015-12-26T07:30:00Z,28.2598,-96.7737,0.0,14.7,1111122 
TCOON,ioos:station:TCOON:127:1,2015-12-26T08:30:00Z,28.2598,-96.7737,0.0,14.8,1111122 
TCOON,ioos:station:TCOON:127:1,2015-12-26T09:30:00Z,28.2598,-96.7737,0.0,14.9,1111122 
TCOON,ioos:station:TCOON:127:1,2015-12-26T11:30:00Z,28.2598,-96.7737,0.0,15.2,1111122 
TCOON,ioos:station:TCOON:127:1,2015-12-26T12:30:00Z,28.2598,-96.7737,0.0,15.2,1111122 
TCOON,ioos:station:TCOON:127:1,2015-12-26T13:30:00Z,28.2598,-96.7737,0.0,15.0,1111122 
TCOON,ioos:station:TCOON:127:1,2015-12-26T15:30:00Z,28.2598,-96.7737,0.0,15.4,1111122 
TCOON,ioos:station:TCOON:127:1,2015-12-26T16:30:00Z,28.2598,-96.7737,0.0,15.3,1111122 
TCOON,ioos:station:TCOON:127:1,2015-12-26T17:30:00Z,28.2598,-96.7737,0.0,16.1,1111122 
TCOON,ioos:station:TCOON:127:1,2015-12-26T18:30:00Z,28.2598,-96.7737,0.0,16.0,1111122 
TCOON,ioos:station:TCOON:127:1,2015-12-26T19:30:00Z,28.2598,-96.7737,0.0,16.0,1111122 
TCOON,ioos:station:TCOON:127:1,2015-12-26T20:30:00Z,28.2598,-96.7737,0.0,16.0,1111122 
TCOON,ioos:station:TCOON:127:1,2015-12-26T21:30:00Z,28.2598,-96.7737,0.0,15.9,1111122 
TCOON,ioos:station:TCOON:127:1,2015-12-26T22:30:00Z,28.2598,-96.7737,0.0,15.9,1111122 
TCOON,ioos:station:TCOON:127:1,2015-12-26T23:30:00Z,28.2598,-96.7737,0.0,15.9,1111122 
TCOON,ioos:station:TCOON:127:1,2015-12-27T00:30:00Z,28.2598,-96.7737,0.0,15.6,1111122 
TCOON,ioos:station:TCOON:127:1,2015-12-27T02:30:00Z,28.2598,-96.7737,0.0,14.6,1111122 
TCOON,ioos:station:TCOON:127:1,2015-12-27T04:30:00Z,28.2598,-96.7737,0.0,14.5,1111122 
TCOON,ioos:station:TCOON:127:1,2015-12-27T05:30:00Z,28.2598,-96.7737,0.0,14.3,1111122 
TCOON,ioos:station:TCOON:127:1,2015-12-27T06:30:00Z,28.2598,-96.7737,0.0,14.3,1111122 
TCOON,ioos:station:TCOON:127:1,2015-12-27T07:30:00Z,28.2598,-96.7737,0.0,14.5,1111122 
TCOON,ioos:station:TCOON:127:1,2015-12-27T09:30:00Z,28.2598,-96.7737,0.0,14.6,1111122 
TCOON,ioos:station:TCOON:127:1,2015-12-27T10:30:00Z,28.2598,-96.7737,0.0,14.6,1111122 
TCOON,ioos:station:TCOON:127:1,2015-12-27T11:30:00Z,28.2598,-96.7737,0.0,14.7,1111122 
TCOON,ioos:station:TCOON:127:1,2015-12-27T12:30:00Z,28.2598,-96.7737,0.0,14.8,1111122 
TCOON,ioos:station:TCOON:127:1,2015-12-27T13:30:00Z,28.2598,-96.7737,0.0,14.8,1111122 
TCOON,ioos:station:TCOON:127:1,2015-12-27T14:30:00Z,28.2598,-96.7737,0.0,14.9,1111122 
TCOON,ioos:station:TCOON:127:1,2015-12-27T15:30:00Z,28.2598,-96.7737,0.0,14.3,1111122 
TCOON,ioos:station:TCOON:127:1,2015-12-27T16:30:00Z,28.2598,-96.7737,0.0,14.6,1111122 
TCOON,ioos:station:TCOON:127:1,2015-12-27T17:30:00Z,28.2598,-96.7737,0.0,14.5,1111122 
TCOON,ioos:station:TCOON:127:1,2015-12-27T18:30:00Z,28.2598,-96.7737,0.0,14.1,1111122 
TCOON,ioos:station:TCOON:127:1,2015-12-27T19:30:00Z,28.2598,-96.7737,0.0,12.0,1111122 
TCOON,ioos:station:TCOON:127:1,2015-12-27T20:30:00Z,28.2598,-96.7737,0.0,11.9,1111122 
TCOON,ioos:station:TCOON:127:1,2015-12-27T21:30:00Z,28.2598,-96.7737,0.0,12.6,1111122 
TCOON,ioos:station:TCOON:127:1,2015-12-27T22:30:00Z,28.2598,-96.7737,0.0,12.5,1111122 
TCOON,ioos:station:TCOON:127:1,2015-12-27T23:30:00Z,28.2598,-96.7737,0.0,13.0,1111122 
TCOON,ioos:station:TCOON:127:1,2015-12-28T00:30:00Z,28.2598,-96.7737,0.0,19.2,1111122 
TCOON,ioos:station:TCOON:127:1,2015-12-28T01:30:00Z,28.2598,-96.7737,0.0,19.4,1111122 
TCOON,ioos:station:TCOON:127:1,2015-12-29T17:30:00Z,28.2598,-96.7737,0.0,15.9,1111122 
TCOON,ioos:station:TCOON:127:1,2015-12-29T18:30:00Z,28.2598,-96.7737,0.0,16.0,1111122 
TCOON,ioos:station:TCOON:127:1,2015-12-29T19:30:00Z,28.2598,-96.7737,0.0,16.0,1111122 
TCOON,ioos:station:TCOON:127:1,2015-12-29T20:30:00Z,28.2598,-96.7737,0.0,16.2,1111122 
TCOON,ioos:station:TCOON:127:1,2015-12-29T21:30:00Z,28.2598,-96.7737,0.0,16.1,1111122 
TCOON,ioos:station:TCOON:127:1,2015-12-29T22:30:00Z,28.2598,-96.7737,0.0,15.8,1111122 
TCOON,ioos:station:TCOON:127:1,2015-12-29T23:30:00Z,28.2598,-96.7737,0.0,15.8,1111122 
TCOON,ioos:station:TCOON:127:1,2015-12-30T00:30:00Z,28.2598,-96.7737,0.0,15.8,1111122 
TCOON,ioos:station:TCOON:127:1,2015-12-30T01:30:00Z,28.2598,-96.7737,0.0,15.8,1111122 
TCOON,ioos:station:TCOON:127:1,2015-12-30T02:30:00Z,28.2598,-96.7737,0.0,15.9,1111122 
TCOON,ioos:station:TCOON:127:1,2015-12-30T03:30:00Z,28.2598,-96.7737,0.0,15.8,1111122 